Regional Weather Roundup
Issued by NWS New Orleans/Baton Rouge, LA

Home | Current Version | Previous Version | Graphics & Text | Print | Product List | Glossary On
Versions: 1 2 3 4 5 6 7 8 9 10 11 12 13 14 15 16 17 18 19 20 21 22 23 24 25 26 27 28 29 30 31 32 33 34 35 36 37 38 39 40 41 42 43 44 45 46 47 48 49 50
791
ASUS44 KLIX 010110
RWRLIX
NEW ORLEANS REGIONAL WEATHER ROUNDUP
NATIONAL WEATHER SERVICE NEW ORLEANS LA
800 PM CDT THU JUL 31 2014

NOTE: "FAIR" INDICATES FEW OR NO CLOUDS BELOW 12,000 FEET WITH NO
      SIGNIFICANT WEATHER AND/OR OBSTRUCTIONS TO VISIBILITY.
      SKY/WX - SKY CONDITION AND SIGNIFICANT WEATHER.
      TMP - AIR TEMPERATURE.     DP    - DEWPOINT TEMPERATURE.
      RH  - RELATIVE HUMIDITY.   PRES  - PRESSURE.
      HI  - HEAT INDEX.          WCI   - WIND CHILL INDEX.

*  THESE STATIONS ARE NOT NWS OR FAA STATIONS AND ARE NOT UNDER
   NWS QUALITY CONTROL.

LAZ038-040-048-061>063-065>067-069-010200-
SOUTHEAST LOUISIANA

CITY           SKY/WX    TMP DP  RH WIND       PRES   REMARKS
N.O. AUDUBON     N/A     84  65  53 MISG        N/A
N.O. INTL ARPT MOCLDY    83  62  49 NE6       29.98F
N.O. LAKEFRONT MOCLDY    86  60  41 NE3       29.99S
N.O. DOWNTOWN*   N/A     84  64  51 SE6       29.99F
SLIDELL        MOCLDY    79  68  69 CALM      29.99S
BATON ROUGE    MOCLDY    80  68  66 NE5       29.98S
BOOTHVILLE     PTCLDY    82  66  58 NE3       30.00S
BELLE CHASSE   MOCLDY    82  68  62 E3        29.98F
BOGALUSA*        N/A     79  67  67 NE3       30.02S
GALLIANO*      NOT AVBL
NEW ROADS*       N/A     79  68  69 NE6       29.98S
GONZALES*        N/A     82  71  69 CALM      29.97F
HAMMOND*       MOCLDY    81  64  57 CALM      30.01S
HOUMA*         PTCLDY    80  68  67 CALM      29.98S
PORT FOURCHON* CLEAR     82  68  61 SE6       30.01S

$$

MSZ070-080>082-010200-
SOUTHERN MISSISSIPPI

CITY           SKY/WX    TMP DP  RH WIND       PRES   REMARKS
MCCOMB         MOCLDY    76  65  68 NE3       30.02S
GULFPORT       MOCLDY    83  67  58 CALM      29.98F
BILOXI         MOCLDY    80  65  62 CALM      29.99F
PASCAGOULA     PTCLDY    76  68  76 CALM      29.99F
STENNIS ARPT*  CLEAR    N/A N/A N/A CALM      29.99F

$$

COASTAL OBSERVATIONS
LAKE AND NEARSHORE STATIONS

STATION/POSITION TIME  TEMP    WIND        PRES    WAVE
                       AIR SEA DIR/SP/G            HT/PER
                 (UTC) (F)     (DEG/KT/KT) (MB)    (FT/S)
PASCAGOULA       0100   82     250/  5/  7 1015.1
WAVELAND YACHT   0100   83     270/  2/  3 1014.9
GRAND ISLE       0100   82 88  110/  3/  5 1016.2
SOUTHWEST PASS   0100   85 86   40/  6/  7 1016.0
NEW CANAL        0100   85 84   50/  4/  5 1015.7
SHELL BEACH      0100   81 83  150/  5/  6 1015.3

OFFSHORE STATIONS

STATION/POSITION TIME  TEMP    WIND        PRES    WAVE
                       AIR SEA DIR/SP/G            HT/PER
                 (UTC) (F)     (DEG/KT/KT) (MB)    (FT/S)

$$




USA.gov is the U.S. government's official web portal to all federal, state and local government web resources and services.